sat.trackr.live / text

‹ back to catalog

STARLINK-2499

NORAD 48377 · 2021-038AA

PAYLOAD ACTIVE UNKNOWN

§ Identity

Operator
Country
US
Launch date
2021-05-04
Launch site
AFETR
Launch vehicle
Mass (kg)
RCS (m²)

Purposes: comms

External: N2YO · Heavens-Above · Gunter

§ Orbital elements

Epoch: 2026-05-24T23:54:18.658656Z

Period
94.01 min
Inclination
53.1612°
Eccentricity
0.0001212
Mean motion
15.31718529 rev/d
Perigee alt
469.9 km
Apogee alt
471.5 km
Semi-major
6,848.8 km
B*
1.3323e-4
RAAN
352.9583°
Arg perigee
94.6140°
Mean anomaly
265.5000°
Rev number
27,891

§ Raw data

STARLINK-24991 48377U 21038AA  26144.99604929  .00003774  00000+0  13323-3 0  99932 48377  53.1612 352.9583 0001212  94.6140 265.5000 15.31718529278911

JSON: /api/v1/satellites/48377 · /tle

For live sub-satellite position, see the globe view (requires WebGL).

§ Visibility from observer

Set your observer location to see the next 7 days of passes ≥ 10°. The values pass through the URL so the page stays shareable.

No JS? Fill the form by hand. The geolocation button needs JavaScript.